STARLINK W

Last updated on June 19, 2020, 12:02 a.m. UTC

1 45750U 20038W   20170.75001157  .00114289  11275-4  14184-3 0  9996
2 45750  52.9996 271.8081 0111331  69.5467 147.4689 15.96160731  2131

Satellite is not in orbit.